#timestamp,LO_Frequency,Hit 
1499864415.6,286046998.3,N
1499864435.5,286046998.6,N
1499864455.3,286047002.7,N
1499864475.1,286046999.7,N
1499864495.9,286047002.3,N
1499864515.7,286047001.6,N
1499864535.6,286047002.4,N
1499864555.4,286047002.6,N
1499864575.2,286047002.6,N
1499864595.1,286047002.4,N
1499864596.0,286047002.4,N
1499864615.8,286047000.2,N
1499864635.6,286047000.0,N
1499864655.5,286047000.0,N
1499864675.3,286047001.2,N
1499864695.2,286046998.4,N
1499864715.9,286046999.3,N
1499864735.7,286046999.0,N
1499864755.6,286047001.1,N
1499864775.4,286047000.7,N
1499864795.2,286046999.2,N
1499864815.1,286046999.2,N
1499864816.0,286046999.2,N
1499864835.8,286047000.7,N
1499864855.7,286046999.6,N
1499864875.5,286046999.2,N
1499864895.3,286046998.9,N
1499864915.2,286046999.3,N
1499864935.9,286046997.4,N
1499864955.7,286046995.1,N
1499864975.6,286046995.8,N
1499864995.4,286046993.4,N
1499865015.2,286046993.6,N
1499865035.1,286046995.0,N
1499865036.0,286046995.0,N
1499865055.8,286046996.2,N
1499865075.7,286046997.5,N
1499865095.5,286046997.4,N
1499865115.3,286046996.6,N
1499865135.2,286046996.8,N
1499865155.0,286046995.5,N
1499865155.9,286046995.5,N
1499865175.7,286046996.4,N
1499865195.6,286046993.8,N
1499865215.4,286046995.9,N
1499865235.3,286046994.9,N
1499865255.1,286046995.9,N
1499865256.0,286046995.9,N
1499865275.8,286046995.2,N
1499865295.7,286046995.0,N
1499865315.5,286046995.4,N
1499865335.3,286046997.7,N
1499865355.2,286046996.6,N
1499865375.0,286046997.0,N
1499865375.9,286046997.0,N
1499865395.8,286046999.0,N
1499865415.6,286047000.8,N
1499865435.4,286047000.9,N
1499865455.3,286047001.1,N
1499865475.1,286046998.7,N
1499865495.8,286046996.9,N
1499865515.7,286046997.3,N
1499865535.5,286046997.1,N
1499865555.4,286046998.9,N
1499865575.2,286046999.0,N
1499865595.0,286046996.9,N
1499865595.9,286046996.9,N
1499865615.8,286046995.0,N
1499865635.6,286046995.4,N
1499865655.4,286046995.1,N
1499865675.3,286046995.1,N
1499865695.1,286046998.0,N
1499865715.9,286046995.7,N
1499865735.7,286046994.9,N
1499865755.5,286046995.8,N
1499865775.4,286046995.6,N
1499865795.2,286046995.2,N
1499865815.0,286046996.5,N
1499865815.9,286046996.5,N
1499865835.8,286046997.1,N
1499865855.6,286046997.0,N
1499865875.5,286046996.5,N
1499865895.3,286046998.9,N
1499865915.1,286046998.8,N
1499865935.9,286046996.8,N
1499865955.7,286046995.5,N
1499865975.5,286046997.8,N
1499865995.4,286046997.7,N
1499866015.2,286046999.4,N
1499866035.0,286047001.2,N
1499866036.0,286047001.2,N
1499866055.8,286046999.0,N
1499866075.6,286046996.6,N
1499866095.5,286046996.6,N
1499866115.3,286046997.7,N
1499866135.1,286046995.3,N
1499866155.9,286046996.5,N
1499866175.7,286046995.6,N
1499866195.5,286046995.1,N
1499866215.4,286046997.6,N
1499866235.2,286046997.4,N
1499866255.1,286046999.5,N
1499866256.0,286046999.5,N
1499866275.8,286046999.0,N
1499866295.6,286046999.6,N
1499866315.5,286046996.9,N
1499866335.3,286046996.5,N
1499866355.1,286046998.9,N
1499866375.9,286046998.1,N
1499866395.7,286046999.9,N
1499866415.6,286046999.9,N
1499866435.4,286046999.9,N
1499866455.2,286047000.7,N
1499866475.1,286047002.4,N
1499866476.0,286047002.4,N
1499866495.8,286047003.8,N
1499866515.6,286047003.5,N
1499866535.5,286047007.5,N
1499866555.3,286047005.0,N
1499866575.2,286047007.1,N
1499866595.9,286047007.3,N
1499866615.7,286047008.4,N
1499866635.6,286047010.7,N
1499866655.4,286047008.9,N
1499866675.2,286047008.8,N
1499866695.1,286047008.5,N
1499866696.0,286047008.5,N
1499866715.8,286047008.9,N
1499866735.7,286047008.6,N
1499866755.5,286047008.6,N
1499866775.3,286047008.2,N
1499866795.2,286047010.3,N
1499866815.9,286047010.5,N
1499866835.7,286047010.3,N
1499866855.6,286047009.6,N
1499866875.4,286047012.4,N
1499866895.3,286047011.9,N
1499866915.1,286047010.9,N
1499866916.0,286047010.9,N
1499866935.8,286047014.0,N
1499866955.7,286047013.1,N
1499866975.5,286047014.0,N
1499866995.3,286047014.0,N
1499867015.2,286047013.7,N
1499867035.0,286047015.0,N
1499867035.9,286047015.0,N
1499867055.8,286047017.2,N
1499867075.6,286047017.1,N
1499867095.4,286047016.6,N
1499867115.3,286047017.9,N
1499867135.1,286047018.5,N
1499867155.9,286047018.0,N
1499867175.7,286047018.5,N
1499867195.5,286047018.2,N
1499867215.4,286047019.9,N
1499867235.2,286047017.3,N
1499867255.0,286047019.8,N
1499867255.9,286047019.8,N
1499867275.8,286047017.6,N
1499867295.6,286047017.0,N
1499867315.4,286047014.1,N
1499867335.3,286047017.2,N
1499867355.1,286047015.9,N
1499867375.9,286047018.3,N
1499867395.7,286047015.8,N
1499867415.5,286047016.8,N
1499867435.4,286047016.4,N
1499867455.2,286047015.9,N
1499867475.1,286047014.3,N
1499867476.0,286047014.3,N
1499867495.8,286047016.3,N
1499867515.6,286047016.5,N
1499867535.5,286047014.1,N
1499867555.3,286047017.0,N
1499867575.1,286047016.8,N
1499867595.9,286047017.2,N
1499867615.7,286047014.2,N
1499867635.6,286047014.8,N
1499867655.4,286047016.4,N
1499867675.2,286047016.3,N
1499867695.1,286047016.3,N
1499867696.0,286047016.3,N
1499867745.8,286047016.7,Y
1499867755.8,286047008.7,N
1499867775.6,286046999.2,N
1499867795.4,286046998.8,N
1499867815.3,286046998.8,N
1499867835.1,286046998.1,N
1499867855.8,286047000.3,N
1499867875.7,286046999.2,N
1499867895.5,286047000.9,N
1499867915.4,286047000.5,N
1499867935.2,286046996.8,N
1499867955.0,286046997.8,N
1499867955.9,286046997.8,N
1499867975.8,286046997.2,N
1499867995.6,286046997.0,N
